This demonstration page uses our WeatherBlox Daily Observations layout. Learn more.

Left ArrowRight Arrow

39.08367, -84.50855

Hourly Observations for April 26, 2015

Temp ( °F °C ) Dew Point ( °F °C ) Humidity (%) Winds ( mph kmh ) Pressure ( in mb ) Visibility ( mi km ) Precip ( " mm )
12:53 am 00:53 Cloudy 45 7.2 42 5.6 90 90 NE 9 15 29.70 1006 10 16 N/A
1:53 am 01:53 Cloudy 45 7.2 42 5.6 90 90 NE 10 17 29.71 1006 10 16 N/A
2:53 am 02:53 Cloudy 45 7.2 40 4.4 83 83 NNE 8 13 29.73 1007 10 16 N/A
3:53 am 03:53 Cloudy 44 6.7 38 3.3 79 79 NNE 7 11 29.73 1007 10 16 N/A
4:53 am 04:53 Cloudy 44 6.7 32 undefined 63 63 N 10 17 29.76 1008 10 16 N/A
5:53 am 05:53 Cloudy 42 5.6 32 undefined 68 68 N 7 11 29.77 1008 10 16 N/A
6:53 am 06:53 Cloudy 41 5 32 undefined 70 70 NNE 5 7 29.79 1009 10 16 N/A
7:53 am 07:53 Partly Cloudy 42 5.6 33 0.6 71 71 N 6 9 29.80 1009 10 16 N/A
8:53 am 08:53 Sunny 46 7.8 35 1.7 66 66 NNE 9 15 29.82 1010 10 16 N/A
9:53 am 09:53 Sunny 49 9.4 35 1.7 59 59 NE 9 15 29.85 1011 10 16 N/A
10:53 am 10:53 Sunny 51 10.6 36 2.2 56 56 NNE 8 13 29.85 1011 10 16 N/A
11:53 am 11:53 Sunny 53 11.7 36 2.2 52 52 N 9 15 29.86 1011 10 16 N/A
12:53 pm 12:53 Sunny 56 13.3 38 3.3 51 51 NE 13 20 29.86 1011 10 16 N/A
1:53 pm 13:53 Sunny 58 14.4 37 2.8 46 46 NE 12 19 29.85 1011 10 16 N/A
2:53 pm 14:53 Sunny 59 15 35 1.7 41 41 NNW 6 9 29.85 1011 10 16 N/A
3:53 pm 15:53 Sunny 60 15.6 37 2.8 42 42 NNE 8 13 29.85 1011 10 16 N/A
4:53 pm 16:53 Sunny 60 15.6 36 2.2 41 41 N 9 15 29.83 1010 10 16 N/A
5:53 pm 17:53 Sunny 58 14.4 35 1.7 42 42 NNW 10 17 29.84 1011 10 16 N/A
6:53 pm 18:53 Partly Cloudy 57 13.9 36 2.2 45 45 N 10 17 29.86 1011 10 16 N/A
7:53 pm 19:53 Partly Cloudy 55 12.8 35 1.7 47 47 NNW 9 15 29.88 1012 10 16 N/A
8:53 pm 20:53 Mostly Clear 51 10.6 35 1.7 54 54 NNW 6 9 29.89 1012 10 16 N/A
9:53 pm 21:53 Partly Cloudy 50 10 35 1.7 57 57 N 6 9 29.91 1013 10 16 N/A
10:53 pm 22:53 Clear 45 7.2 40 4.4 83 83 N N/A 29.92 1013 10 16 N/A
11:53 pm 23:53 Clear 42 5.6 40 4.4 92 92 N N/A 29.92 1013 10 16 N/A

Powered by AerisWeather